Lid_Strength_Index
5 4 4 4 4 4 4 4 5 7 6 3 2 1 2 2 3 2 2 2 2 2 2 2 2 2 2 2 2 2 2 3 3 3 3 3 4 3
5 5 5 4 4 4 4 4 4 5 6 4 1 2 2 2 3 3 3 4 4 3 3 3 4 4 3 3 3 3 4 4 4 4 4 4 5 4
6 6 5 5 5 4 4 5 5 5 6 4 3 2 2 3 3 4 3 3 4 4 4 4 4 4 4 5 5 5 5 5 5 5 5 6 6 5
6 5 5 5 5 5 5 5 5 5 6 6 4 4 3 3 4 5 5 5 4 4 4 4 4 5 5 5 6 6 6 6 6 6 6 6 6 6
5 5 5 4 5 5 5 6 6 6 6 6 7 5 4 4 4 5 5 6 6 6 5 5 4 4 5 5 6 6 7 7 8 8 8 8 8 8
6 5 5 5 5 5 5 5 6 6 6 6 6 6 6 5 6 7 7 6 7 7 7 8 6 5 5 5 6 7 7 8 8 8 8 8 8 8
6 6 6 6 6 5 6 5 6 7 7 7 7 7 7 7 7 7 8 8 8 9 8 9 7 7 7 7 7 8 8 9 9 9 9 9 9 9
7 7 7 7 6 6 6 6 6 7 7 9 9 9 9 9 9 9 9 10 10 11 11 11 9 8 9 8 9 9 9 10 10 10 10 10 10 10
7 7 8 8 7 7 7 7 6 6 7 8 9 9 9 9 10 10 11 11 11 12 12 13 11 11 10 11 11 10 10 11 10 11 11 11 11 11
7 8 8 8 8 8 8 8 8 8 8 9 9 9 9 9 10 11 12 12 13 13 13 14 14 13 13 11 11 10 11 12 11 11 11 12 12 11
8 8 8 9 9 8 8 9 9 9 9 8 9 10 10 11 12 13 14 14 14 14 14 14 14 14 15 13 11 11 12 12 12 12 12 12 12 12
9 9 9 9 8 8 8 8 10 10 10 10 10 10 10 10 12 14 14 15 15 15 14 15 16 16 16 15 13 13 13 15 14 14 14 14 13 12
10 10 10 9 8 7 7 8 9 9 10 11 12 11 11 12 12 14 14 14 15 15 14 14 16 16 17 17 16 16 15 16 15 15 16 16 15 15
10 9 10 9 9 8 8 8 8 9 11 12 12 13 13 13 13 14 15 15 14 14 13 14 16 16 17 18 18 17 16 16 16 16 16 16 16 15
9 9 9 9 9 9 8 8 8 10 12 14 14 14 14 13 15 15 16 16 16 15 15 15 16 17 17 17 18 18 18 17 16 16 16 16 16 15
11 10 9 9 9 10 11 11 10 11 12 12 13 14 15 15 15 15 16 17 17 17 16 16 17 17 18 18 18 18 17 18 16 16 16 16 15 15
11 13 13 12 12 12 12 11 12 12 12 13 14 15 15 16 16 16 17 18 17 17 17 17 16 16 16 17 18 17 17 18 17 16 17 17 16 15
10 11 12 12 12 12 12 11 11 11 12 12 13 14 14 15 16 17 17 17 18 17 17 17 17 18 18 17 16 17 18 17 16 16 16 17 16 14
10 11 12 12 12 12 11 12 11 11 11 12 12 13 13 14 14 15 16 17 17 17 17 17 18 17 18 19 17 15 17 16 16 16 15 15 16 15
12 12 11 11 11 11 11 11 11 11 12 12 12 12 12 13 14 14 15 16 16 16 17 18 18 18 17 17 17 16 15 15 16 16 16 14 14 13
11 11 10 10 10 10 10 10 10 11 11 11 11 12 12 13 14 14 14 14 15 16 17 17 17 14 16 16 18 17 15 14 14 15 15 15 15 14
10 10 10 10 10 9 9 9 10 10 10 10 11 11 12 12 13 13 14 14 14 15 15 14 15 15 17 17 17 17 16 15 14 13 12 12 13 15
9 9 9 10 10 10 9 9 9 10 10 10 10 11 11 12 12 12 13 13 13 14 14 15 16 15 15 16 16 17 18 17 15 14 13 12 10 11